Location: Kumla
(59.1265°N, 15.1401°E)
Time: 23:14:19
(UTC+01:00)

Vanguard 1 - Pass Details

Date: 05 December 2023
Orbit: 653 x 3825 km, 34.3° (Epoch: 04 March)

Event Time Altitude Azimuth Distance (km) Brightness Sun altitude
Rises 22:33:24 0° 264° (W) 7,203 14.7 -50.8°
Reaches altitude 10° 22:39:09 10° 254° (WSW) 6,521 14.3 -51.2°
Enters shadow 22:49:12 24° 228° (SW) 5,756 13.7 -51.7°
